Year,Month,Day,Hour,Minute,Value (Times are PST for temperature in C)
2016,06,21,00,00,17.70
2016,06,21,00,01,17.70
2016,06,21,00,02,17.60
2016,06,21,00,03,17.60
2016,06,21,00,04,17.60
2016,06,21,00,05,17.50
2016,06,21,00,06,17.40
2016,06,21,00,07,17.40
2016,06,21,00,08,17.30
2016,06,21,00,09,17.30
2016,06,21,00,10,17.20
2016,06,21,00,11,17.20
2016,06,21,00,12,17.10
2016,06,21,00,13,17.00
2016,06,21,00,14,17.00
2016,06,21,00,15,16.90
2016,06,21,00,16,16.80
2016,06,21,00,17,16.80
2016,06,21,00,18,16.70
2016,06,21,00,19,16.70
2016,06,21,00,20,16.70
2016,06,21,00,21,16.70
2016,06,21,00,22,16.70
2016,06,21,00,23,16.70
2016,06,21,00,24,16.70
2016,06,21,00,25,16.60
2016,06,21,00,26,16.60
2016,06,21,00,27,16.50
2016,06,21,00,28,16.50
2016,06,21,00,29,16.40
2016,06,21,00,30,16.40
2016,06,21,00,31,16.30
2016,06,21,00,32,16.30
2016,06,21,00,33,16.20
2016,06,21,00,34,16.10
2016,06,21,00,35,16.10
2016,06,21,00,36,16.00
2016,06,21,00,37,15.90
2016,06,21,00,38,15.80
2016,06,21,00,39,15.80
2016,06,21,00,40,15.70
2016,06,21,00,41,15.60
2016,06,21,00,42,15.60
2016,06,21,00,43,15.50
2016,06,21,00,44,15.40
2016,06,21,00,45,15.40
2016,06,21,00,46,15.40
2016,06,21,00,47,15.40
2016,06,21,00,48,15.50
2016,06,21,00,49,15.40
2016,06,21,00,50,15.40
2016,06,21,00,51,15.40
2016,06,21,00,52,15.40
2016,06,21,00,53,15.40
2016,06,21,00,54,15.40
2016,06,21,00,55,15.40
2016,06,21,00,56,15.40
2016,06,21,00,57,15.40
2016,06,21,00,58,15.40
2016,06,21,00,59,15.40
2016,06,21,06,05,14.10
2016,06,21,06,06,14.10
2016,06,21,06,07,14.10
2016,06,21,06,08,14.10
2016,06,21,06,09,14.10
2016,06,21,06,10,14.10
2016,06,21,06,11,14.10
2016,06,21,06,12,14.10
2016,06,21,06,13,14.10
2016,06,21,06,14,14.10
2016,06,21,06,15,14.10
2016,06,21,06,16,14.10
2016,06,21,06,17,14.20
2016,06,21,06,18,14.30
2016,06,21,06,19,14.30
2016,06,21,06,20,14.40
2016,06,21,06,21,14.40
2016,06,21,06,22,14.40
2016,06,21,06,23,14.50
2016,06,21,06,24,14.50
2016,06,21,06,25,14.60
2016,06,21,06,26,14.60
2016,06,21,06,27,14.70
2016,06,21,06,28,14.70
2016,06,21,06,29,14.80
2016,06,21,06,30,14.90
2016,06,21,06,31,14.90
2016,06,21,06,32,14.90
2016,06,21,06,33,15.00
2016,06,21,06,34,15.10
2016,06,21,06,35,15.10
2016,06,21,06,36,15.20
2016,06,21,06,37,15.20
2016,06,21,06,38,15.20
2016,06,21,06,39,15.30
2016,06,21,06,40,15.30
2016,06,21,06,41,15.30
2016,06,21,06,42,15.30
2016,06,21,06,43,15.30
2016,06,21,06,44,15.40
2016,06,21,06,45,15.40
2016,06,21,06,46,15.40
2016,06,21,06,47,15.40
2016,06,21,06,48,15.40
2016,06,21,06,49,15.40
2016,06,21,06,50,15.50
2016,06,21,06,51,15.50
2016,06,21,06,52,15.50
2016,06,21,06,53,15.50
2016,06,21,06,54,15.60
2016,06,21,06,55,15.60
2016,06,21,06,56,15.60
2016,06,21,06,57,15.60
2016,06,21,06,58,15.60
2016,06,21,06,59,15.60
2016,06,21,07,00,15.60
2016,06,21,07,01,15.70
2016,06,21,07,02,15.70
2016,06,21,07,03,15.80
2016,06,21,07,04,15.80
2016,06,21,07,05,15.80
2016,06,21,07,06,15.90
2016,06,21,07,07,15.90
2016,06,21,07,08,15.90
2016,06,21,07,09,15.90
2016,06,21,07,10,15.90
2016,06,21,07,11,15.90
2016,06,21,07,12,15.90
2016,06,21,07,13,15.90
2016,06,21,07,14,15.90
2016,06,21,07,15,16.00
2016,06,21,07,16,16.00
2016,06,21,07,17,16.10
2016,06,21,07,18,16.10
2016,06,21,07,19,16.20
2016,06,21,07,20,16.20
2016,06,21,07,21,16.20
2016,06,21,07,22,16.20
2016,06,21,07,23,16.30
2016,06,21,07,24,16.30
2016,06,21,07,25,16.30
2016,06,21,07,26,16.30
2016,06,21,07,27,16.30
2016,06,21,07,28,16.40
2016,06,21,07,29,16.40
2016,06,21,07,30,16.40
2016,06,21,07,31,16.40
2016,06,21,07,32,16.40
2016,06,21,07,33,16.40
2016,06,21,07,34,16.50
2016,06,21,07,35,16.50
2016,06,21,07,36,16.50
2016,06,21,07,37,16.60
2016,06,21,07,38,16.60
2016,06,21,07,39,16.60
2016,06,21,07,40,16.70
2016,06,21,07,41,16.70
2016,06,21,07,42,16.80
2016,06,21,07,43,16.80
2016,06,21,07,44,16.80
2016,06,21,07,45,16.90
2016,06,21,07,46,16.90
2016,06,21,07,47,16.90
2016,06,21,07,48,17.00
2016,06,21,07,49,17.00
2016,06,21,07,50,17.00
2016,06,21,07,51,16.90
2016,06,21,07,52,16.90
2016,06,21,07,53,16.90
2016,06,21,07,54,16.90
2016,06,21,07,55,16.90
2016,06,21,07,56,16.90
2016,06,21,07,57,16.80
2016,06,21,07,58,16.80
2016,06,21,07,59,16.90
2016,06,21,08,00,16.90
2016,06,21,08,01,16.90
2016,06,21,08,02,16.90
2016,06,21,08,03,16.90
2016,06,21,08,04,16.90
2016,06,21,08,05,16.90
2016,06,21,08,06,16.90
2016,06,21,08,07,16.90
2016,06,21,08,08,16.90
2016,06,21,08,09,16.90
2016,06,21,08,10,17.00
2016,06,21,08,11,17.00
2016,06,21,08,12,17.10
2016,06,21,08,13,17.00
2016,06,21,08,14,17.00
2016,06,21,08,15,16.90
2016,06,21,08,16,17.00
2016,06,21,08,17,17.00
2016,06,21,08,18,17.10
2016,06,21,08,19,17.10
2016,06,21,08,20,17.10
2016,06,21,08,21,17.20
2016,06,21,08,22,17.20
2016,06,21,08,23,17.20
2016,06,21,08,24,17.30
2016,06,21,08,25,17.30
2016,06,21,08,26,17.30
2016,06,21,08,27,17.30
2016,06,21,08,28,17.30
2016,06,21,08,29,17.40
2016,06,21,08,30,17.40
2016,06,21,08,31,17.40
2016,06,21,08,32,17.40
2016,06,21,08,33,17.50
2016,06,21,08,34,17.50
2016,06,21,08,35,17.40
2016,06,21,08,36,17.40
2016,06,21,08,37,17.40
2016,06,21,08,38,17.40
2016,06,21,08,39,17.40
2016,06,21,08,40,17.40
2016,06,21,08,41,17.40
2016,06,21,08,42,17.50
2016,06,21,08,43,17.50
2016,06,21,08,44,17.50
2016,06,21,08,45,17.50
2016,06,21,08,46,17.50
2016,06,21,08,47,17.50
2016,06,21,08,48,17.50
2016,06,21,08,49,17.60
2016,06,21,08,50,17.60
2016,06,21,08,51,17.60
2016,06,21,08,52,17.60
2016,06,21,08,53,17.60
2016,06,21,08,54,17.60
2016,06,21,08,55,17.60
2016,06,21,08,56,17.60
2016,06,21,08,57,17.70
2016,06,21,08,58,17.70
2016,06,21,08,59,17.70
2016,06,21,09,00,17.70
2016,06,21,09,01,17.70
2016,06,21,09,02,17.60
2016,06,21,09,03,17.70
2016,06,21,09,04,17.70
2016,06,21,09,05,17.70
2016,06,21,09,06,17.80
2016,06,21,09,07,17.80
2016,06,21,09,08,17.80
2016,06,21,09,09,17.80
2016,06,21,09,10,17.90
2016,06,21,09,11,17.90
2016,06,21,09,12,17.90
2016,06,21,09,13,17.90
2016,06,21,09,14,17.90
2016,06,21,09,15,17.90
2016,06,21,09,16,18.00
2016,06,21,09,17,18.00
2016,06,21,09,18,18.10
2016,06,21,09,19,18.10
2016,06,21,09,20,18.10
2016,06,21,09,21,18.10
2016,06,21,09,22,18.10
2016,06,21,09,23,18.10
2016,06,21,09,24,18.10
2016,06,21,09,25,18.10
2016,06,21,09,26,18.10
2016,06,21,09,27,18.10
2016,06,21,09,28,18.10
2016,06,21,09,29,18.20
2016,06,21,09,30,18.20
2016,06,21,09,31,18.20
2016,06,21,09,32,18.30
2016,06,21,09,33,18.40
2016,06,21,09,34,18.40
2016,06,21,09,35,18.50
2016,06,21,09,36,18.50
2016,06,21,09,37,18.50
2016,06,21,09,38,18.60
2016,06,21,09,39,18.60
2016,06,21,09,40,18.60
2016,06,21,09,41,18.60
2016,06,21,09,42,18.60
2016,06,21,09,43,18.70
2016,06,21,09,44,18.70
2016,06,21,09,45,18.80
2016,06,21,09,46,18.90
2016,06,21,09,47,19.10
2016,06,21,09,48,19.20
2016,06,21,09,49,19.30
2016,06,21,09,50,19.40
2016,06,21,09,51,19.50
2016,06,21,09,52,19.50
2016,06,21,09,53,19.50
2016,06,21,09,54,19.50
2016,06,21,09,55,19.50
2016,06,21,09,56,19.60
2016,06,21,09,57,19.50
2016,06,21,09,58,19.40
2016,06,21,09,59,19.30
2016,06,21,10,00,19.30
2016,06,21,10,01,19.20
2016,06,21,10,02,19.20
2016,06,21,10,03,19.30
2016,06,21,10,04,19.30
2016,06,21,10,05,19.30
2016,06,21,10,06,19.30
2016,06,21,10,07,19.30
2016,06,21,10,08,19.30
2016,06,21,10,09,19.30
2016,06,21,10,10,19.30
2016,06,21,10,11,19.30
2016,06,21,10,12,19.30
2016,06,21,10,13,19.30
2016,06,21,10,14,19.30
2016,06,21,10,15,19.30
2016,06,21,10,16,19.40
2016,06,21,10,17,19.40
2016,06,21,10,18,19.50
2016,06,21,10,19,19.50
2016,06,21,10,20,19.60
2016,06,21,10,21,19.60
2016,06,21,10,22,19.60
2016,06,21,10,23,19.60
2016,06,21,10,24,19.60
2016,06,21,10,25,19.70
2016,06,21,10,26,19.80
2016,06,21,10,27,19.80
2016,06,21,10,28,19.90
2016,06,21,10,29,19.90
2016,06,21,10,30,19.90
2016,06,21,10,31,19.90
2016,06,21,10,32,19.90
2016,06,21,10,33,19.80
2016,06,21,10,34,19.80
2016,06,21,10,35,19.90
2016,06,21,10,36,19.80
2016,06,21,10,37,19.70
2016,06,21,10,38,19.70
2016,06,21,10,39,19.80
2016,06,21,10,40,19.80
2016,06,21,10,41,20.00
2016,06,21,10,42,20.20
2016,06,21,10,43,20.30
2016,06,21,10,44,20.40
2016,06,21,10,45,20.40
2016,06,21,10,46,20.50
2016,06,21,10,47,20.60
2016,06,21,10,48,20.70
2016,06,21,10,49,20.90
2016,06,21,10,50,20.90
2016,06,21,10,51,20.90
2016,06,21,10,52,20.80
2016,06,21,10,53,20.60
2016,06,21,10,54,20.40
2016,06,21,10,55,20.30
2016,06,21,10,56,20.20
2016,06,21,10,57,20.20
2016,06,21,10,58,20.20
2016,06,21,10,59,20.20
2016,06,21,11,00,20.20
2016,06,21,11,01,20.20
2016,06,21,11,02,20.10
2016,06,21,11,03,20.00
2016,06,21,11,04,19.90
2016,06,21,11,05,19.90
2016,06,21,11,06,19.90
2016,06,21,11,07,20.00
2016,06,21,11,08,20.10
2016,06,21,11,09,20.20
2016,06,21,11,10,20.30
2016,06,21,11,11,20.30
2016,06,21,11,12,20.40
2016,06,21,11,13,20.50
2016,06,21,11,14,20.60
2016,06,21,11,15,20.70
2016,06,21,11,16,20.90
2016,06,21,11,17,20.90
2016,06,21,11,18,20.90
2016,06,21,11,19,20.90
2016,06,21,11,20,20.70
2016,06,21,11,21,20.60
2016,06,21,11,22,20.50
2016,06,21,11,23,20.40
2016,06,21,11,24,20.30
2016,06,21,11,25,20.20
2016,06,21,11,26,20.20
2016,06,21,11,27,20.20
2016,06,21,11,28,20.10
2016,06,21,11,29,20.00
2016,06,21,11,30,20.00
2016,06,21,11,31,19.90
2016,06,21,11,32,19.90
2016,06,21,11,33,19.80
2016,06,21,11,34,19.80
2016,06,21,11,35,19.70
2016,06,21,11,36,19.70
2016,06,21,11,37,19.70
2016,06,21,11,38,19.70
2016,06,21,11,39,19.70
2016,06,21,11,40,19.70
2016,06,21,11,41,19.60
2016,06,21,11,42,19.60
2016,06,21,11,43,19.60
2016,06,21,11,44,19.60
2016,06,21,11,45,19.70
2016,06,21,11,46,19.70
2016,06,21,11,47,19.80
2016,06,21,11,48,19.90
2016,06,21,11,49,20.10
2016,06,21,11,50,20.20
2016,06,21,11,51,20.30
2016,06,21,11,52,20.40
2016,06,21,11,53,20.40
2016,06,21,11,54,20.40
2016,06,21,11,55,20.40
2016,06,21,11,56,20.50
2016,06,21,11,57,20.60
2016,06,21,11,58,20.60
2016,06,21,11,59,20.70
2016,06,21,12,00,20.70
2016,06,21,12,01,20.80
2016,06,21,12,02,20.90
2016,06,21,12,03,20.90
2016,06,21,12,04,20.90
2016,06,21,12,05,20.90
2016,06,21,12,06,20.90
2016,06,21,12,07,20.90
2016,06,21,12,08,21.00
2016,06,21,12,09,21.10
2016,06,21,12,10,21.10
2016,06,21,12,11,21.10
2016,06,21,12,12,21.10
2016,06,21,12,13,21.10
2016,06,21,12,14,21.10
2016,06,21,12,15,21.10
2016,06,21,12,16,21.20
2016,06,21,12,17,21.30
2016,06,21,12,18,21.40
2016,06,21,12,19,21.40
2016,06,21,12,20,21.50
2016,06,21,12,21,21.50
2016,06,21,12,22,21.30
2016,06,21,12,23,21.10
2016,06,21,12,24,21.00
2016,06,21,12,25,21.00
2016,06,21,12,26,21.00
2016,06,21,12,27,21.00
2016,06,21,12,28,21.00
2016,06,21,12,29,21.00
2016,06,21,12,30,21.10
2016,06,21,12,31,21.10
2016,06,21,12,32,21.20
2016,06,21,12,33,21.30
2016,06,21,12,34,21.40
2016,06,21,12,35,21.50
2016,06,21,12,36,21.50
2016,06,21,12,37,21.50
2016,06,21,12,38,21.50
2016,06,21,12,39,21.50
2016,06,21,12,40,21.60
2016,06,21,12,41,21.60
2016,06,21,12,42,21.50
2016,06,21,12,43,21.50
2016,06,21,12,44,21.50
2016,06,21,12,45,21.50
2016,06,21,12,46,21.50
2016,06,21,12,47,21.40
2016,06,21,12,48,21.50
2016,06,21,12,49,21.50
2016,06,21,12,50,21.40
2016,06,21,12,51,21.40
2016,06,21,12,52,21.40
2016,06,21,12,53,21.50
2016,06,21,12,54,21.50
2016,06,21,12,55,21.50
2016,06,21,12,56,21.70
2016,06,21,12,57,21.90
2016,06,21,12,58,22.00
2016,06,21,12,59,21.90
2016,06,21,13,00,22.00
2016,06,21,13,01,22.00
2016,06,21,13,02,21.90
2016,06,21,13,03,21.80
2016,06,21,13,04,21.70
2016,06,21,13,05,21.50
2016,06,21,13,06,21.30
2016,06,21,13,07,21.30
2016,06,21,13,08,21.30
2016,06,21,13,09,21.30
2016,06,21,13,10,21.40
2016,06,21,13,11,21.40
2016,06,21,13,12,21.50
2016,06,21,13,13,21.50
2016,06,21,13,14,21.50
2016,06,21,13,15,21.60
2016,06,21,13,16,21.70
2016,06,21,13,17,21.70
2016,06,21,13,18,21.60
2016,06,21,13,19,21.40
2016,06,21,13,20,21.10
2016,06,21,13,21,21.00
2016,06,21,13,22,21.10
2016,06,21,13,23,21.10
2016,06,21,13,24,21.20
2016,06,21,13,25,21.20
2016,06,21,13,26,21.20
2016,06,21,13,27,21.00
2016,06,21,13,28,21.00
2016,06,21,13,29,20.90
2016,06,21,13,30,20.80
2016,06,21,13,31,20.80
2016,06,21,13,32,20.80
2016,06,21,13,33,20.70
2016,06,21,13,34,20.70
2016,06,21,13,35,20.70
2016,06,21,13,36,20.70
2016,06,21,13,37,20.70
2016,06,21,13,38,20.70
2016,06,21,13,39,20.80
2016,06,21,13,40,20.80
2016,06,21,13,41,21.00
2016,06,21,13,42,21.10
2016,06,21,13,43,21.20
2016,06,21,13,44,21.20
2016,06,21,13,45,21.10
2016,06,21,13,46,21.10
2016,06,21,13,47,21.10
2016,06,21,13,48,21.20
2016,06,21,13,49,21.30
2016,06,21,13,50,21.40
2016,06,21,13,51,21.60
2016,06,21,13,52,21.60
2016,06,21,13,53,21.60
2016,06,21,13,54,21.70
2016,06,21,13,55,21.70
2016,06,21,13,56,21.50
2016,06,21,13,57,21.50
2016,06,21,13,58,21.40
2016,06,21,13,59,21.40
2016,06,21,14,00,21.40
2016,06,21,14,01,21.40
2016,06,21,14,02,21.40
2016,06,21,14,03,21.50
2016,06,21,14,04,21.50
2016,06,21,14,05,21.60
2016,06,21,14,06,21.50
2016,06,21,14,07,21.40
2016,06,21,14,08,21.30
2016,06,21,14,09,21.30
2016,06,21,14,10,21.30
2016,06,21,14,11,21.30
2016,06,21,14,12,21.50
2016,06,21,14,13,21.60
2016,06,21,14,14,21.60
2016,06,21,14,15,21.50
2016,06,21,14,16,21.60
2016,06,21,14,17,21.60
2016,06,21,14,18,21.50
2016,06,21,14,19,21.50
2016,06,21,14,20,21.40
2016,06,21,14,21,21.40
2016,06,21,14,22,21.30
2016,06,21,14,23,21.10
2016,06,21,14,24,20.90
2016,06,21,14,25,20.70
2016,06,21,14,26,20.60
2016,06,21,14,27,20.60
2016,06,21,14,28,20.60
2016,06,21,14,29,20.60
2016,06,21,14,30,20.60
2016,06,21,14,31,20.60
2016,06,21,14,32,20.60
2016,06,21,14,33,20.60
2016,06,21,14,34,20.60
2016,06,21,14,35,20.70
2016,06,21,14,36,20.80
2016,06,21,14,37,20.90
2016,06,21,14,38,20.80
2016,06,21,14,39,20.80
2016,06,21,14,40,20.70
2016,06,21,14,41,20.70
2016,06,21,14,42,20.70
2016,06,21,14,43,20.70
2016,06,21,14,44,20.70
2016,06,21,14,45,20.70
2016,06,21,14,46,20.60
2016,06,21,14,47,20.60
2016,06,21,14,48,20.60
2016,06,21,14,49,20.80
2016,06,21,14,50,21.00
2016,06,21,14,51,21.10
2016,06,21,14,52,21.30
2016,06,21,14,53,21.40
2016,06,21,14,54,21.50
2016,06,21,14,55,21.50
2016,06,21,14,56,21.60
2016,06,21,14,57,21.70
2016,06,21,14,58,21.60
2016,06,21,14,59,21.40
2016,06,21,15,00,21.30
2016,06,21,15,01,21.10
2016,06,21,15,02,21.00
2016,06,21,15,03,21.00
2016,06,21,15,04,20.90
2016,06,21,15,05,20.90
2016,06,21,15,06,21.00
2016,06,21,15,07,21.00
2016,06,21,15,08,20.90
2016,06,21,15,09,20.90
2016,06,21,15,10,20.80
2016,06,21,15,11,20.70
2016,06,21,15,12,20.70
2016,06,21,15,13,20.70
2016,06,21,15,14,20.70
2016,06,21,15,15,20.80
2016,06,21,15,16,20.90
2016,06,21,15,17,21.10
2016,06,21,15,18,21.30
2016,06,21,15,19,21.40
2016,06,21,15,20,21.40
2016,06,21,15,21,21.30
2016,06,21,15,22,21.40
2016,06,21,15,23,21.50
2016,06,21,15,24,21.60
2016,06,21,15,25,21.60
2016,06,21,15,26,21.60
2016,06,21,15,27,21.60
2016,06,21,15,28,21.50
2016,06,21,15,29,21.40
2016,06,21,15,30,21.40
2016,06,21,15,31,21.20
2016,06,21,15,32,21.10
2016,06,21,15,33,20.90
2016,06,21,15,34,20.80
2016,06,21,15,35,20.80
2016,06,21,15,36,20.80
2016,06,21,15,37,20.80
2016,06,21,15,38,20.80
2016,06,21,15,39,20.80
2016,06,21,15,40,20.90
2016,06,21,15,41,20.90
2016,06,21,15,42,21.00
2016,06,21,15,43,21.10
2016,06,21,15,44,21.20
2016,06,21,15,45,21.30
2016,06,21,15,46,21.50
2016,06,21,15,47,21.60
2016,06,21,15,48,21.60
2016,06,21,15,49,21.70
2016,06,21,15,50,21.60
2016,06,21,15,51,21.60
2016,06,21,15,52,21.70
2016,06,21,15,53,21.80
2016,06,21,15,54,21.80
2016,06,21,15,55,21.80
2016,06,21,15,56,21.80
2016,06,21,15,57,21.60
2016,06,21,15,58,21.60
2016,06,21,15,59,21.60
2016,06,21,16,00,21.70
2016,06,21,16,01,21.70
2016,06,21,16,02,21.70
2016,06,21,16,03,21.60
2016,06,21,16,04,21.60
2016,06,21,16,05,21.50
2016,06,21,16,06,21.50
2016,06,21,16,07,21.50
2016,06,21,16,08,21.40
2016,06,21,16,09,21.30
2016,06,21,16,10,21.30
2016,06,21,16,11,21.30
2016,06,21,16,12,21.30
2016,06,21,16,13,21.30
2016,06,21,16,14,21.30
2016,06,21,16,15,21.40
2016,06,21,16,16,21.50
2016,06,21,16,17,21.40
2016,06,21,16,18,21.40
2016,06,21,16,19,21.40
2016,06,21,16,20,21.30
2016,06,21,16,21,21.30
2016,06,21,16,22,21.20
2016,06,21,16,23,21.10
2016,06,21,16,24,21.00
2016,06,21,16,25,20.90
2016,06,21,16,26,20.90
2016,06,21,16,27,20.90
2016,06,21,16,28,20.90
2016,06,21,16,29,21.00
2016,06,21,16,30,21.00
2016,06,21,16,31,20.90
2016,06,21,16,32,20.80
2016,06,21,16,33,20.70
2016,06,21,16,34,20.70
2016,06,21,16,35,20.70
2016,06,21,16,36,20.80
2016,06,21,16,37,20.70
2016,06,21,16,38,20.80
2016,06,21,16,39,20.80
2016,06,21,16,40,20.80
2016,06,21,16,41,20.80
2016,06,21,16,42,20.80
2016,06,21,16,43,20.70
2016,06,21,16,44,20.70
2016,06,21,16,45,20.70
2016,06,21,16,46,20.70
2016,06,21,16,47,20.80
2016,06,21,16,48,20.70
2016,06,21,16,49,20.70
2016,06,21,16,50,20.70
2016,06,21,16,51,20.80
2016,06,21,16,52,20.80
2016,06,21,16,53,20.80
2016,06,21,16,54,20.80
2016,06,21,16,55,20.80
2016,06,21,16,56,20.80
2016,06,21,16,57,20.90
2016,06,21,16,58,20.90
2016,06,21,16,59,20.90
2016,06,21,17,00,20.90
2016,06,21,17,01,20.90
2016,06,21,17,02,20.90
2016,06,21,17,03,20.80
2016,06,21,17,04,20.70
2016,06,21,17,05,20.70
2016,06,21,17,06,20.60
2016,06,21,17,07,20.50
2016,06,21,17,08,20.40
2016,06,21,17,09,20.40
2016,06,21,17,10,20.40
2016,06,21,17,11,20.40
2016,06,21,17,12,20.40
2016,06,21,17,13,20.40
2016,06,21,17,14,20.40
2016,06,21,17,15,20.40
2016,06,21,17,16,20.40
2016,06,21,17,17,20.40
2016,06,21,17,18,20.50
2016,06,21,17,19,20.50
2016,06,21,17,20,20.50
2016,06,21,17,21,20.40
2016,06,21,17,22,20.40
2016,06,21,17,23,20.30
2016,06,21,17,24,20.30
2016,06,21,17,25,20.20
2016,06,21,17,26,20.20
2016,06,21,17,27,20.20
2016,06,21,17,28,20.20
2016,06,21,17,29,20.20
2016,06,21,17,30,20.20
2016,06,21,17,31,20.30
2016,06,21,17,32,20.30
2016,06,21,17,33,20.40
2016,06,21,17,34,20.40
2016,06,21,17,35,20.40
2016,06,21,17,36,20.30
2016,06,21,17,37,20.30
2016,06,21,17,38,20.30
2016,06,21,17,39,20.30
2016,06,21,17,40,20.30
2016,06,21,17,41,20.20
2016,06,21,17,42,20.20
2016,06,21,17,43,20.20
2016,06,21,17,44,20.20
2016,06,21,17,45,20.20
2016,06,21,17,46,20.20
2016,06,21,17,47,20.20
2016,06,21,17,48,20.20
2016,06,21,17,49,20.20
2016,06,21,17,50,20.10
2016,06,21,17,51,20.10
2016,06,21,17,52,20.10
2016,06,21,17,53,20.10
2016,06,21,17,54,20.20
2016,06,21,17,55,20.20
2016,06,21,17,56,20.20
2016,06,21,17,57,20.30
2016,06,21,17,58,20.30
2016,06,21,17,59,20.30
2016,06,21,18,00,20.30
2016,06,21,18,01,20.30
2016,06,21,18,02,20.30
2016,06,21,18,03,20.30
2016,06,21,18,04,20.30
2016,06,21,18,05,20.40
2016,06,21,18,06,20.40
2016,06,21,18,07,20.40
2016,06,21,18,08,20.50
2016,06,21,18,09,20.50
2016,06,21,18,10,20.40
2016,06,21,18,11,20.40
2016,06,21,18,12,20.40
2016,06,21,18,13,20.40
2016,06,21,18,14,20.40
2016,06,21,18,15,20.40
2016,06,21,18,16,20.40
2016,06,21,18,17,20.40
2016,06,21,18,18,20.40
2016,06,21,18,19,20.40
2016,06,21,18,20,20.30
2016,06,21,18,21,20.20
2016,06,21,18,22,20.20
2016,06,21,18,23,20.20
2016,06,21,18,24,20.10
2016,06,21,18,25,20.10
2016,06,21,18,26,20.10
2016,06,21,18,27,20.20
2016,06,21,18,28,20.20
2016,06,21,18,29,20.30
2016,06,21,18,30,20.30
2016,06,21,18,31,20.30
2016,06,21,18,32,20.20
2016,06,21,18,33,20.00
2016,06,21,18,34,19.80
2016,06,21,18,35,19.50
2016,06,21,18,36,19.30
2016,06,21,18,37,19.10
2016,06,21,18,38,19.00
2016,06,21,18,39,18.80
2016,06,21,18,40,18.80
2016,06,21,18,41,18.70
2016,06,21,18,42,18.60
2016,06,21,18,43,18.50
2016,06,21,18,44,18.50
2016,06,21,18,45,18.50
2016,06,21,18,46,18.40
2016,06,21,18,47,18.40
2016,06,21,18,48,18.40
2016,06,21,18,49,18.30
2016,06,21,18,50,18.30
2016,06,21,18,51,18.30
2016,06,21,18,52,18.30
2016,06,21,18,53,18.20
2016,06,21,18,54,18.10
2016,06,21,18,55,18.10
2016,06,21,18,56,18.10
2016,06,21,18,57,18.10
2016,06,21,18,58,18.00
2016,06,21,18,59,18.00
2016,06,21,19,00,17.90
2016,06,21,19,01,17.80
2016,06,21,19,02,17.60
2016,06,21,19,03,17.40
2016,06,21,19,04,17.30
2016,06,21,19,05,17.20
2016,06,21,19,06,17.00
2016,06,21,19,07,16.80
2016,06,21,19,08,16.60
2016,06,21,19,09,16.50
2016,06,21,19,10,16.30
2016,06,21,19,11,16.20
2016,06,21,19,12,16.20
2016,06,21,19,13,16.10
2016,06,21,19,14,16.00
2016,06,21,19,15,15.90
2016,06,21,19,16,15.80
2016,06,21,19,17,15.80
2016,06,21,19,18,15.80
2016,06,21,19,19,15.70
2016,06,21,19,20,15.70
2016,06,21,19,21,15.70
2016,06,21,19,22,15.70
2016,06,21,19,23,15.70
2016,06,21,19,24,15.70
2016,06,21,19,25,15.60
2016,06,21,19,26,15.60
2016,06,21,19,27,15.60
2016,06,21,19,28,15.60
2016,06,21,19,29,15.60
2016,06,21,19,30,15.60
2016,06,21,19,31,15.50
2016,06,21,19,32,15.50
2016,06,21,19,33,15.40
2016,06,21,19,34,15.40
2016,06,21,19,35,15.40
2016,06,21,19,36,15.30
2016,06,21,19,37,15.30
2016,06,21,19,38,15.30
2016,06,21,19,39,15.30
2016,06,21,19,40,15.30
2016,06,21,19,41,15.30
2016,06,21,19,42,15.30
2016,06,21,19,43,15.30
2016,06,21,19,44,15.30
2016,06,21,19,45,15.30
2016,06,21,19,46,15.30
2016,06,21,19,47,15.30
2016,06,21,19,48,15.30
2016,06,21,19,49,15.30
2016,06,21,19,50,15.30
2016,06,21,19,51,15.30
2016,06,21,19,52,15.30
2016,06,21,19,53,15.30
2016,06,21,19,54,15.30
2016,06,21,19,55,15.30
2016,06,21,19,56,15.30
2016,06,21,19,57,15.30
2016,06,21,19,58,15.30
2016,06,21,19,59,15.30
2016,06,21,20,00,15.30
2016,06,21,20,01,15.30
2016,06,21,20,02,15.30
2016,06,21,20,03,15.30
2016,06,21,20,04,15.30
2016,06,21,20,05,15.30
2016,06,21,20,06,15.30
2016,06,21,20,07,15.30
2016,06,21,20,08,15.30
2016,06,21,20,09,15.30
2016,06,21,20,10,15.30
2016,06,21,20,11,15.30
2016,06,21,20,12,15.30
2016,06,21,20,13,15.30
2016,06,21,20,14,15.30
2016,06,21,20,15,15.30
2016,06,21,20,16,15.30
2016,06,21,20,17,15.30
2016,06,21,20,18,15.30
2016,06,21,20,19,15.30
2016,06,21,20,20,15.30
2016,06,21,20,21,15.30
2016,06,21,20,22,15.30
2016,06,21,20,23,15.40
2016,06,21,20,24,15.40
2016,06,21,20,25,15.40
2016,06,21,20,26,15.40
2016,06,21,20,27,15.40
2016,06,21,20,28,15.40
2016,06,21,20,29,15.50
2016,06,21,20,30,15.50
2016,06,21,20,31,15.50
2016,06,21,20,32,15.50
2016,06,21,20,33,15.50
2016,06,21,20,34,15.50
2016,06,21,20,35,15.60
2016,06,21,20,36,15.60
2016,06,21,20,37,15.60
2016,06,21,20,38,15.60
2016,06,21,20,39,15.60
2016,06,21,20,40,15.60
2016,06,21,20,41,15.60
2016,06,21,20,42,15.60
2016,06,21,20,43,15.60
2016,06,21,20,44,15.60
2016,06,21,20,45,15.60
2016,06,21,20,46,15.60
2016,06,21,20,47,15.60
2016,06,21,20,48,15.60
2016,06,21,20,49,15.60
2016,06,21,20,50,15.60
2016,06,21,20,51,15.60
2016,06,21,20,52,15.60
2016,06,21,20,53,15.60
2016,06,21,20,54,15.60
2016,06,21,20,55,15.50
2016,06,21,20,56,15.50
2016,06,21,20,57,15.50
2016,06,21,20,58,15.50
2016,06,21,20,59,15.40
2016,06,21,21,00,15.40
2016,06,21,21,01,15.40
2016,06,21,21,02,15.40
2016,06,21,21,03,15.40
2016,06,21,21,04,15.40
2016,06,21,21,05,15.40
2016,06,21,21,06,15.40
2016,06,21,21,07,15.40
2016,06,21,21,08,15.40
2016,06,21,21,09,15.40
2016,06,21,21,10,15.40
2016,06,21,21,11,15.30
2016,06,21,21,12,15.40
2016,06,21,21,13,15.30
2016,06,21,21,14,15.30
2016,06,21,21,15,15.30
2016,06,21,21,16,15.30
2016,06,21,21,17,15.30
2016,06,21,21,18,15.30
2016,06,21,21,19,15.30
2016,06,21,21,20,15.30
2016,06,21,21,21,15.30
2016,06,21,21,22,15.30
2016,06,21,21,23,15.30
2016,06,21,21,24,15.30
2016,06,21,21,25,15.30
2016,06,21,21,26,15.30
2016,06,21,21,27,15.30
2016,06,21,21,28,15.30
2016,06,21,21,29,15.20
2016,06,21,21,30,15.20
2016,06,21,21,31,15.20
2016,06,21,21,32,15.20
2016,06,21,21,33,15.10
2016,06,21,21,34,15.10
2016,06,21,21,35,15.10
2016,06,21,21,36,15.10
2016,06,21,21,37,15.00
2016,06,21,21,38,15.00
2016,06,21,21,39,15.00
2016,06,21,21,40,15.00
2016,06,21,21,41,15.00
2016,06,21,21,42,15.00
2016,06,21,21,43,15.00
2016,06,21,21,44,14.90
2016,06,21,21,45,14.90
2016,06,21,21,46,14.90
2016,06,21,21,47,14.90
2016,06,21,21,48,14.90
2016,06,21,21,49,14.80
2016,06,21,21,50,14.80
2016,06,21,21,51,14.80
2016,06,21,21,52,14.80
2016,06,21,21,53,14.80
2016,06,21,21,54,14.80
2016,06,21,21,55,14.80
2016,06,21,21,56,14.70
2016,06,21,21,57,14.70
2016,06,21,21,58,14.70
2016,06,21,21,59,14.70
2016,06,21,22,00,14.70
2016,06,21,22,01,14.70
2016,06,21,22,02,14.70
2016,06,21,22,03,14.70
2016,06,21,22,04,14.70
2016,06,21,22,05,14.70
2016,06,21,22,06,14.70
2016,06,21,22,07,14.70
2016,06,21,22,08,14.60
2016,06,21,22,09,14.60
2016,06,21,22,10,14.60
2016,06,21,22,11,14.60
2016,06,21,22,12,14.60
2016,06,21,22,13,14.50
2016,06,21,22,14,14.50
2016,06,21,22,15,14.50
2016,06,21,22,16,14.40
2016,06,21,22,17,14.40
2016,06,21,22,18,14.40
2016,06,21,22,19,14.40
2016,06,21,22,20,14.40
2016,06,21,22,21,14.30
2016,06,21,22,22,14.30
2016,06,21,22,23,14.30
2016,06,21,22,24,14.30